[[{"header":{"parameterUnit":"m.s-1","parameterCategory":1,"la1":30.2991,"la2":30.254,"lo1":-89.0895,"lo2":-89.0444,"dy":0.0017,"dx":0.0017,"nx":28,"ny":28,"refTime":"2025-12-27T03:00:00:Z","depth":0,"parameterNumber":2,"parameterNumberName":"U-component_of_WINDS"},"data":[0,0,0,0,0,0,0,0,0,0,0,0,0,0,0,0,0,0,0,0,0,0,0,0,0,0,0,0,0,0,0,0,0,0,0,0,0,0,0,0,0,0,0,0,0,0,0,0,0,0,0,0,0,0,0,0,0,0,-1.5907,-1.5907,0,-1.5878,-1.5878,-1.5878,-1.5855,-1.5854,-1.5854,-1.5854,-1.5825,-1.5825,-1.5824,0,0,0,0,0,0,0,0,0,0,0,0,0,-1.5942,-1.5941,-1.5907,-1.5907,-1.5906,-1.5879,-1.5878,-1.5878,-1.5855,-1.5854,-1.5854,-1.5854,-1.5826,-1.5825,-1.5824,0,0,0,0,0,0,0,0,0,0,0,0,0,-1.5922,-1.5941,-1.5907,-1.5891,-1.589,-1.5879,-1.5878,-1.5878,-1.5855,-1.5854,-1.5854,-1.5854,-1.5826,-1.5825,-1.5824,-1.5826,0,0,-1.5822,-1.5821,0,0,0,0,0,0,0,0,-1.5923,-1.592,-1.5894,-1.5892,-1.5891,-1.587,-1.588,-1.586,-1.5855,-1.5868,-1.5854,-1.5853,-1.584,-1.5838,-1.5834,-1.5825,-1.5824,-1.5822,-1.5821,-1.5821,-1.5821,0,0,0,0,0,0,0,-1.5924,-1.5921,-1.5896,-1.5894,-1.5892,-1.5886,-1.5883,-1.5876,-1.5857,-1.5867,-1.5865,-1.5862,-1.5839,-1.5835,-1.5833,-1.5823,-1.5822,-1.5821,-1.582,-1.582,-1.5815,-1.5815,0,0,0,0,0,0,-1.5928,-1.5923,-1.5897,-1.5895,-1.5906,-1.5886,-1.5882,-1.5877,-1.5857,-1.5853,-1.5862,-1.5861,-1.5836,-1.5834,-1.5832,-1.5833,-1.5821,-1.582,-1.582,-1.5814,-1.5815,-1.5815,0,0,0,0,0,0,-1.5929,-1.5926,-1.5898,-1.5908,-1.5904,-1.5885,-1.588,-1.5876,-1.5872,-1.5853,-1.585,-1.5861,-1.5836,-1.5833,-1.5828,-1.5831,-1.582,-1.5819,-1.5814,-1.5815,-1.5815,-1.5835,0,0,0,0,0,0,-1.593,-1.5926,-1.5927,-1.5908,-1.5904,-1.5894,-1.588,-1.5876,-1.587,-1.5868,-1.5851,-1.5848,-1.5835,-1.5829,-1.5827,-1.583,-1.5818,-1.5814,-1.5814,-1.5815,-1.5833,-1.5836,-1.5838,0,0,0,0,0,-1.5931,-1.5934,-1.5927,-1.5924,-1.5904,-1.5894,-1.5892,-1.5877,-1.5871,-1.5871,-1.5859,-1.5848,-1.5832,-1.5829,-1.5826,-1.5829,-1.5813,-1.5814,-1.5815,-1.5833,-1.5835,-1.5837,0,0,0,0,0,0,-1.5953,-1.5931,-1.5923,-1.592,-1.5909,-1.589,-1.589,-1.588,-1.5871,-1.587,-1.5852,-1.5849,-1.5845,-1.5837,-1.5834,-1.583,-1.5821,-1.5821,-1.5835,-1.5838,-1.584,-1.5841,-1.5818,0,0,0,0,0,-1.5957,-1.5951,-1.5932,-1.5931,-1.5926,-1.5909,-1.5904,-1.5894,-1.5882,-1.5878,-1.5865,-1.5855,-1.5847,-1.5842,-1.5834,-1.5833,-1.5828,-1.5833,-1.5835,-1.5837,-1.5837,-1.5835,-1.5837,-1.5818,-1.5818,-1.5818,0,0,-1.5966,-1.5954,-1.5951,-1.5935,-1.5926,-1.5919,-1.5905,-1.59,-1.5895,-1.5877,-1.5871,-1.5862,-1.5849,-1.5845,-1.5843,-1.5838,-1.5842,-1.5838,-1.584,-1.5839,-1.5836,-1.5838,-1.584,-1.5818,-1.5818,-1.5818,0,0,-1.5979,-1.5969,-1.5967,-1.5958,-1.5943,-1.5932,-1.5932,-1.5914,-1.5907,-1.5901,-1.5887,-1.5882,-1.5869,-1.586,-1.5854,-1.5864,-1.5853,-1.5862,-1.5872,-1.587,-1.5872,-1.5873,-1.5876,-1.5877,-1.5862,-1.5862,-1.5862,0,-1.5992,-1.5982,-1.5967,-1.5962,-1.5955,-1.5939,-1.5936,-1.5928,-1.5912,-1.5908,-1.5902,-1.5885,-1.5876,-1.5869,-1.5872,-1.5868,-1.5866,-1.5863,-1.5873,-1.5874,-1.5875,-1.5877,-1.5878,-1.5863,-1.5863,-1.5863,-1.5863,0,-1.5999,-1.5992,-1.5992,-1.5976,-1.597,-1.5966,-1.595,-1.5945,-1.5936,-1.5925,-1.5919,-1.5907,-1.5896,-1.5894,-1.5885,-1.5886,-1.5884,-1.5876,-1.5866,-1.5878,-1.588,-1.5881,-1.5865,-1.5864,-1.5864,-1.5864,0,0,-1.6024,-1.6,-1.6,-1.5992,-1.5975,-1.597,-1.5966,-1.5954,-1.595,-1.594,-1.5936,-1.5925,-1.5918,-1.5911,-1.5901,-1.59,-1.5907,-1.5892,-1.5891,-1.5894,-1.5908,-1.5913,-1.5915,-1.5901,-1.5901,-1.5901,-1.5909,0,-1.6033,-1.6023,-1.601,-1.6005,-1.5998,-1.5983,-1.5979,-1.5968,-1.5958,-1.5951,-1.5941,-1.5933,-1.5925,-1.592,-1.5918,-1.5907,-1.591,-1.5906,-1.5896,-1.5896,-1.5899,-1.5916,-1.5921,-1.5929,-1.591,-1.591,-1.591,0,-1.6043,-1.6033,-1.6027,-1.601,-1.6007,-1.6004,-1.5992,-1.5986,-1.5974,-1.5967,-1.5959,-1.5948,-1.5942,-1.5935,-1.5927,-1.5925,-1.592,-1.5914,-1.5914,-1.5912,-1.5903,-1.5913,-1.5931,-1.5932,-1.5911,-1.5911,-1.5911,0,-1.606,-1.6046,-1.604,-1.6034,-1.6015,-1.6013,-1.6005,-1.5992,-1.5986,-1.5977,-1.5973,-1.5963,-1.5957,-1.595,-1.5936,-1.5932,-1.593,-1.5921,-1.5923,-1.5924,-1.5923,-1.5923,-1.5939,-1.5922,-1.5922,-1.5922,-1.5922,0,-1.6072,-1.6069,-1.6048,-1.6044,-1.604,-1.6025,-1.6021,-1.6012,-1.6001,-1.5996,-1.5982,-1.5977,-1.596,-1.5954,-1.5943,-1.5938,-1.5936,-1.593,-1.5927,-1.5931,-1.5931,-1.5927,-1.5925,-1.5922,-1.5922,-1.5922,-1.5922,0,-1.609,-1.6076,-1.6069,-1.6051,-1.6047,-1.6045,-1.603,-1.6026,-1.6015,-1.6009,-1.6006,-1.599,-1.5982,-1.5968,-1.5955,-1.5948,-1.5945,-1.5941,-1.5949,-1.5947,-1.595,-1.5949,-1.5963,-1.5964,-1.5947,-1.5947,-1.5947,0,-1.6098,-1.6095,-1.6077,-1.6072,-1.6064,-1.6057,-1.6051,-1.6036,-1.603,-1.6016,-1.6013,-1.6004,-1.5995,-1.5982,-1.597,-1.596,-1.5955,-1.596,-1.5953,-1.5957,-1.5954,-1.5954,-1.5953,-1.5962,-1.5962,-1.5962,-1.5962,0,-1.6113,-1.6106,-1.6097,-1.6086,-1.6079,-1.607,-1.606,-1.6057,-1.604,-1.6034,-1.6025,-1.6018,-1.6005,-1.5996,-1.5984,-1.5976,-1.5966,-1.5965,-1.5965,-1.5968,-1.5972,-1.5969,-1.5952,-1.5964,-1.5964,-1.5964,-1.5964,-1.5964,-1.6125,-1.6122,-1.6108,-1.6099,-1.609,-1.6081,-1.6076,-1.6065,-1.6057,-1.6045,-1.6037,-1.6029,-1.6017,-1.6,-1.5993,-1.5986,-1.5982,-1.5982,-1.5982,-1.5982,-1.5983,-1.5974,-1.5984,-1.5984,-1.5984,-1.5984,-1.5984,0,-1.6138,-1.6129,-1.6121,-1.6107,-1.61,-1.6091,-1.608,-1.6075,-1.6067,-1.6056,-1.6048,-1.6038,-1.6028,-1.6015,-1.6005,-1.6002,-1.5997,-1.6,-1.5999,-1.5998,-1.5987,-1.5988,-1.6004,-1.6004,-1.6004,-1.6004,-1.6004,-1.6004,-1.6144,-1.6138,-1.6129,-1.6118,-1.6109,-1.61,-1.6094,-1.6086,-1.6077,-1.6066,-1.6058,-1.6049,-1.6038,-1.6027,-1.6018,-1.6014,-1.6011,-1.6015,-1.601,-1.6,-1.5998,-1.5997,-1.5997,-1.6014,-1.6014,-1.602,-1.602,-1.602]},{"header":{"parameterUnit":"m.s-1","parameterCategory":1,"la1":30.2991,"la2":30.254,"lo1":-89.0895,"lo2":-89.0444,"dy":0.0017,"dx":0.0017,"nx":28,"ny":28,"refTime":"2025-12-27T03:00:00:Z","depth":0,"parameterNumber":3,"parameterNumberName":"V-component_of_WINDS"},"data":[0,0,0,0,0,0,0,0,0,0,0,0,0,0,0,0,0,0,0,0,0,0,0,0,0,0,0,0,0,0,0,0,0,0,0,0,0,0,0,0,0,0,0,0,0,0,0,0,0,0,0,0,0,0,0,0,0,0,3.3371,3.3372,0,3.3407,3.3407,3.3408,3.34,3.3399,3.3399,3.3398,3.343,3.3432,3.3433,0,0,0,0,0,0,0,0,0,0,0,0,0,3.3293,3.3294,3.3371,3.3372,3.3372,3.3407,3.3407,3.3408,3.34,3.3399,3.3399,3.3398,3.343,3.3432,3.3433,0,0,0,0,0,0,0,0,0,0,0,0,0,3.3327,3.3294,3.3371,3.3373,3.3373,3.3407,3.3407,3.3408,3.34,3.3399,3.3398,3.3397,3.3429,3.3431,3.3434,3.3467,0,0,3.344,3.3441,0,0,0,0,0,0,0,0,3.3325,3.333,3.3372,3.3373,3.3373,3.3398,3.3392,3.3428,3.3401,3.339,3.3398,3.3397,3.342,3.3423,3.3432,3.3468,3.347,3.3441,3.3442,3.3443,3.3443,0,0,0,0,0,0,0,3.3323,3.3328,3.3385,3.3372,3.3373,3.337,3.3374,3.3398,3.341,3.3391,3.339,3.3395,3.342,3.343,3.3432,3.347,3.344,3.3442,3.3444,3.3445,3.3537,3.3538,0,0,0,0,0,0,3.332,3.3327,3.3384,3.3386,3.3346,3.3372,3.3377,3.3391,3.341,3.3412,3.3396,3.3394,3.3426,3.343,3.3434,3.3475,3.3443,3.3445,3.3446,3.3536,3.3538,3.3539,0,0,0,0,0,0,3.3319,3.3326,3.3383,3.3356,3.3363,3.3375,3.3391,3.3392,3.3402,3.3413,3.3415,3.3403,3.3426,3.343,3.3459,3.3476,3.3446,3.3448,3.3535,3.3537,3.3538,3.3557,0,0,0,0,0,0,3.3317,3.3325,3.3339,3.3357,3.3365,3.3409,3.3392,3.3394,3.3406,3.3405,3.3421,3.3423,3.3425,3.3456,3.3461,3.3478,3.345,3.3533,3.3536,3.3538,3.3555,3.356,3.3563,0,0,0,0,0,3.3314,3.3341,3.3339,3.3346,3.3382,3.341,3.3414,3.3418,3.3407,3.3421,3.3428,3.3422,3.3473,3.3459,3.3465,3.3483,3.3532,3.3535,3.3537,3.3554,3.3559,3.3563,0,0,0,0,0,0,3.3323,3.3344,3.3342,3.3376,3.3392,3.3409,3.3425,3.3423,3.344,3.3438,3.344,3.3444,3.3474,3.3481,3.3465,3.3517,3.3501,3.3505,3.3511,3.3516,3.352,3.3518,3.3451,0,0,0,0,0,3.3329,3.3351,3.3368,3.3396,3.3405,3.3414,3.3426,3.3428,3.3443,3.3449,3.3458,3.3472,3.3492,3.3504,3.3522,3.3556,3.356,3.3571,3.3575,3.3578,3.3582,3.3601,3.3607,3.3547,3.3547,3.3547,0,0,3.3342,3.3356,3.3369,3.3399,3.3411,3.3433,3.3419,3.3442,3.3459,3.3452,3.3481,3.3488,3.3504,3.3536,3.355,3.3543,3.3599,3.3582,3.3584,3.3586,3.3605,3.361,3.3615,3.3549,3.3549,3.3548,0,0,3.3377,3.3389,3.3416,3.3429,3.3448,3.3454,3.346,3.3478,3.3484,3.3513,3.3509,3.3527,3.356,3.3572,3.3582,3.3623,3.3618,3.3628,3.3649,3.3668,3.3673,3.3677,3.3692,3.3698,3.3632,3.3632,3.3632,0,3.339,3.3424,3.3429,3.3454,3.3467,3.3464,3.349,3.3502,3.3525,3.3534,3.3525,3.3568,3.3577,3.3613,3.3623,3.3631,3.3638,3.3627,3.3672,3.3676,3.368,3.3695,3.3701,3.3633,3.3633,3.3633,3.3632,0,3.344,3.3464,3.3482,3.3508,3.3523,3.3548,3.3556,3.357,3.3571,3.3577,3.3607,3.362,3.3641,3.3649,3.3649,3.3685,3.368,3.3671,3.3656,3.3687,3.3701,3.3707,3.3635,3.3634,3.3634,3.3633,0,0,3.3481,3.351,3.3517,3.3529,3.3551,3.3569,3.3593,3.3616,3.3629,3.3645,3.3666,3.3695,3.3688,3.37,3.37,3.3717,3.375,3.3707,3.3707,3.3715,3.3791,3.3798,3.3805,3.3747,3.3748,3.3749,3.379,0,3.3519,3.3565,3.3571,3.3612,3.3634,3.3632,3.3653,3.3668,3.3676,3.3695,3.3702,3.3723,3.3711,3.3719,3.3735,3.3743,3.3765,3.3739,3.3766,3.3767,3.3764,3.3812,3.3819,3.3858,3.3796,3.3797,3.3797,0,3.3569,3.359,3.3633,3.3654,3.3663,3.3683,3.3705,3.3723,3.374,3.3744,3.3758,3.3757,3.3782,3.3765,3.38,3.3782,3.3793,3.3799,3.38,3.3804,3.3785,3.3817,3.387,3.3877,3.3806,3.3805,3.3804,0,3.3597,3.3635,3.3666,3.3677,3.37,3.3714,3.3724,3.3741,3.3754,3.3773,3.3782,3.3802,3.3813,3.3829,3.3833,3.382,3.3868,3.3851,3.3872,3.3872,3.3883,3.3882,3.3939,3.3888,3.3888,3.3888,3.3888,0,3.3639,3.3666,3.368,3.3699,3.3729,3.3735,3.3764,3.3773,3.3788,3.3808,3.3806,3.3825,3.3829,3.3849,3.3852,3.3881,3.3886,3.3889,3.389,3.389,3.389,3.3898,3.3896,3.3889,3.3889,3.3889,3.3888,0,3.3675,3.3685,3.372,3.374,3.3746,3.3767,3.3784,3.3802,3.381,3.3836,3.3842,3.3853,3.3876,3.3882,3.3908,3.3911,3.3945,3.3942,3.394,3.394,3.3961,3.396,3.4026,3.4036,3.3977,3.3978,3.3978,0,3.3702,3.3724,3.3747,3.3762,3.3773,3.3796,3.3811,3.3817,3.3832,3.3854,3.387,3.3893,3.3912,3.3949,3.3958,3.3979,3.3977,3.3999,3.398,3.398,3.3979,3.3978,3.3981,3.4003,3.4004,3.4004,3.4005,0,3.375,3.3754,3.3776,3.3801,3.3819,3.3838,3.3856,3.3868,3.3876,3.3893,3.3918,3.3933,3.3961,3.3984,3.4005,3.4014,3.4011,3.401,3.4017,3.4018,3.4016,3.4018,3.3951,3.4009,3.4009,3.4008,3.4008,3.4008,3.3783,3.3803,3.3823,3.3848,3.3863,3.388,3.3899,3.3909,3.3931,3.3956,3.3957,3.3984,3.4001,3.4029,3.4039,3.406,3.4053,3.4062,3.4064,3.4066,3.4069,3.4012,3.4063,3.4063,3.4063,3.4063,3.4063,0,3.3832,3.3845,3.3868,3.3895,3.3915,3.3911,3.3931,3.3948,3.3972,3.3989,3.4008,3.4037,3.4059,3.4071,3.4093,3.4107,3.4106,3.4113,3.4113,3.4115,3.4073,3.4066,3.4114,3.4114,3.4114,3.4114,3.4114,3.4114,3.386,3.3893,3.39,3.394,3.3952,3.3981,3.3993,3.4008,3.4022,3.4055,3.4074,3.4082,3.4097,3.412,3.4141,3.4143,3.4152,3.416,3.4162,3.4123,3.4118,3.4113,3.4106,3.4161,3.4161,3.4202,3.4202,3.4203]}]]